Wind_Speed
36 38 39 39 40 40 41 42 42 43 43 44 45 44 44 43 43 43 43 43 42 41 42 41 41 41 41 42 42 42 42 42 43 43 43 43 43 43 44 44 45 44 44 45
38 39 38 38 39 40 41 42 42 43 44 45 46 46 45 45 44 44 44 43 43 43 42 42 42 42 43 43 43 43 44 44 44 44 44 44 45 45 46 46 46 47 47 46
38 38 37 38 39 40 41 41 41 42 43 44 46 46 45 45 45 45 44 44 44 44 44 44 44 44 44 44 45 45 45 45 46 46 46 46 46 47 47 48 48 48 48 48
37 36 37 38 39 40 41 40 41 41 42 43 43 45 42 43 44 45 43 43 44 44 44 45 45 44 45 45 46 46 46 47 46 46 47 47 47 47 48 48 48 49 49 48
37 36 37 38 38 39 39 39 40 41 42 43 41 43 41 40 41 42 42 43 43 43 44 45 46 45 45 46 47 47 47 47 46 47 47 48 49 49 49 49 49 50 50 50
37 36 37 37 37 38 38 39 40 41 41 41 39 41 42 40 40 41 42 42 43 42 43 44 45 45 45 45 46 47 47 47 47 47 47 48 49 49 49 49 49 50 51 51
36 36 36 36 36 36 37 37 39 39 40 40 39 42 42 40 40 40 41 41 41 41 42 42 43 44 44 44 45 46 47 47 47 47 47 47 48 48 48 48 49 50 50 51
35 34 34 34 35 35 34 35 36 39 40 40 39 41 40 39 39 40 40 41 41 40 40 41 42 43 44 45 45 46 46 46 47 47 46 46 47 47 48 48 49 49 49 50
34 34 32 32 33 34 33 34 35 37 39 40 40 40 39 39 39 39 40 41 41 40 41 41 42 43 43 44 45 46 45 45 45 46 47 47 47 47 47 48 48 49 49 50
33 33 32 33 33 33 34 34 34 35 38 40 40 39 38 38 39 40 40 41 40 40 40 41 42 43 43 43 44 45 45 45 45 45 46 47 47 48 48 48 49 49 49 50
31 32 32 32 32 32 32 33 34 36 37 39 40 40 38 39 39 39 40 41 41 41 41 40 41 42 42 43 43 44 44 45 45 45 46 46 47 47 48 48 49 49 50 50
30 31 32 32 32 32 32 34 34 35 36 38 41 41 38 38 38 39 39 39 40 41 41 40 41 41 42 42 42 43 44 45 45 45 46 46 46 47 47 48 48 49 50 50
30 31 32 33 32 32 33 34 35 35 36 37 38 40 38 37 38 39 39 39 39 39 40 41 41 42 42 42 42 43 44 44 45 45 45 45 45 45 46 46 47 48 49 49
31 32 32 33 33 34 34 34 35 36 37 37 37 38 37 37 38 39 39 39 39 39 40 40 40 40 41 41 42 42 43 44 44 44 44 44 44 45 45 46 46 47 47 47
32 32 33 32 33 34 35 35 35 36 37 38 38 37 37 37 38 38 38 38 39 39 39 39 39 39 39 40 41 41 42 43 43 44 44 44 44 44 45 45 46 46 46 47
32 32 33 33 33 34 35 35 36 36 36 37 37 37 36 37 38 39 39 39 38 38 38 39 39 39 39 40 41 41 42 42 43 43 43 44 44 44 44 45 45 45 45 46
32 32 33 34 33 34 34 32 34 34 34 35 37 36 36 36 37 38 39 39 39 38 37 37 38 39 39 40 40 41 41 41 42 42 42 43 43 43 44 44 45 44 45 45
31 32 33 33 32 33 32 31 32 33 33 34 35 36 36 36 36 37 38 38 38 38 37 37 37 38 38 39 40 40 41 41 41 41 41 42 42 42 43 44 44 44 44 44
29 30 31 31 33 34 32 31 31 32 33 34 34 34 34 35 35 36 36 37 37 37 37 37 37 37 38 38 39 39 40 40 40 41 41 41 41 42 42 43 43 43 43 43
29 29 30 31 32 33 32 32 31 31 32 32 33 33 34 34 34 34 34 35 35 35 36 37 37 38 37 38 38 38 39 39 40 40 41 41 41 42 42 42 41 41 41 41
29 30 30 31 32 32 32 31 31 32 31 31 31 31 32 33 33 33 33 34 34 34 35 36 36 36 36 37 37 37 37 38 39 40 40 40 40 40 41 40 40 40 40 39
30 31 31 31 32 32 31 31 31 32 32 31 32 31 31 31 32 32 33 33 33 33 35 36 36 36 36 36 36 37 37 38 38 38 38 38 38 39 39 39 39 39 39 38
30 30 30 31 31 31 30 30 30 31 32 32 32 32 31 31 32 32 33 33 34 34 35 35 36 36 36 36 37 37 37 38 38 37 37 37 37 37 38 38 37 37 37 37
30 30 30 30 30 30 30 30 31 31 31 30 30 31 31 32 32 33 33 33 34 35 35 36 36 37 37 37 37 37 37 37 37 37 36 36 36 35 35 35 35 35 35 35
31 31 31 31 31 31 31 32 31 31 31 31 30 31 32 32 32 32 33 33 33 34 35 36 36 37 37 37 36 36 36 36 35 35 35 35 34 34 34 33 33 33 34 34
31 31 32 32 32 33 32 33 33 33 32 32 33 32 32 33 33 34 33 33 33 33 34 34 35 35 35 35 35 35 35 34 34 34 34 34 33 33 33 33 32 32 33 33
Wind_Direction
275 274 273 274 274 274 273 272 272 271 271 270 268 267 266 265 265 265 264 263 263 263 263 263 263 262 262 262 262 261 261 261 262 263 263 264 264 263 263 264 264 265 266 267
275 275 276 275 274 273 273 272 272 271 271 271 270 267 266 264 263 263 264 264 263 262 262 262 262 262 261 261 262 262 261 262 263 264 263 264 264 264 264 264 264 265 266 268
277 278 277 274 273 272 273 273 273 273 273 272 271 268 266 265 264 263 264 264 263 263 263 263 263 263 262 261 261 261 261 262 263 265 265 265 265 265 265 265 264 265 266 267
279 278 275 273 272 273 273 273 273 273 274 274 273 272 267 267 265 266 266 266 266 264 264 263 263 263 262 261 261 261 261 262 263 265 266 266 266 265 266 265 265 265 265 267
280 279 276 274 273 272 272 273 273 273 273 274 273 273 270 268 267 266 267 268 267 265 264 264 264 264 263 262 261 261 262 263 264 264 265 265 265 265 265 265 265 265 265 267
280 279 277 276 275 274 273 274 274 273 273 272 272 272 271 269 269 269 270 270 269 267 265 265 264 264 263 262 261 262 263 263 263 264 264 264 265 265 265 265 266 266 266 267
281 278 276 275 274 273 274 274 275 275 273 272 271 271 270 270 271 270 270 270 269 268 267 266 265 263 263 262 262 263 263 263 263 264 264 264 264 265 265 265 266 267 267 267
286 281 279 278 276 274 274 275 275 276 276 276 275 274 274 273 272 271 271 270 270 270 269 267 265 264 264 264 264 264 264 263 263 264 264 264 265 266 266 267 267 268 268 268
289 285 282 281 278 276 275 275 277 278 278 277 276 276 274 273 273 273 274 273 273 272 270 268 267 266 265 264 264 264 263 263 263 264 264 266 267 267 267 267 267 267 268 269
290 287 284 282 279 276 276 277 276 276 277 278 277 277 277 275 274 276 276 275 274 273 270 268 268 266 265 264 264 263 263 264 264 265 265 266 267 268 268 268 267 268 269 270
290 288 286 284 280 280 277 276 275 276 276 277 277 277 278 279 279 278 277 276 273 273 272 270 267 266 265 265 264 264 264 264 265 265 266 266 267 267 268 269 268 269 269 270
290 289 288 287 284 282 280 279 277 277 277 276 276 278 278 278 278 278 277 276 274 273 272 270 268 266 266 265 265 265 265 265 265 266 266 266 267 268 269 269 270 270 269 269
291 290 290 288 286 284 282 280 277 276 275 276 276 277 279 278 277 276 276 275 274 273 272 271 269 268 267 266 266 266 265 265 265 265 266 267 268 269 269 270 270 270 270 270
289 288 288 288 288 286 283 282 280 277 276 275 276 276 275 276 276 276 275 274 274 273 272 272 272 270 269 268 267 267 266 265 265 266 266 267 268 268 269 269 270 270 271 271
289 289 288 286 285 285 284 282 280 279 279 277 277 277 275 275 275 275 274 274 274 272 272 273 273 272 270 269 269 268 268 267 267 267 267 267 268 268 268 269 269 269 270 271
291 290 289 287 286 286 284 284 282 281 279 278 277 276 277 275 274 274 274 276 275 274 273 272 272 272 272 271 270 269 269 268 268 268 268 268 269 269 269 269 269 270 270 271
292 291 290 290 289 286 285 287 285 282 280 279 278 278 278 277 276 275 276 277 277 276 274 273 273 273 272 271 271 270 269 268 268 267 268 268 269 269 269 269 269 270 271 271
294 293 294 292 291 289 289 288 288 284 281 281 281 280 280 279 278 278 278 278 277 276 275 273 273 272 272 272 271 270 269 268 267 267 267 267 268 269 269 269 269 270 271 272
298 296 294 293 291 290 289 290 290 287 284 282 282 281 281 280 280 279 279 278 278 276 275 275 273 273 272 272 271 271 270 268 267 267 267 268 269 270 270 270 269 270 271 271
301 297 295 293 292 293 294 291 291 289 286 284 284 283 282 281 280 280 279 279 278 276 274 274 274 273 272 272 271 271 270 269 268 268 268 269 270 270 271 271 270 271 272 272
302 299 296 295 293 294 294 292 290 288 288 287 285 284 282 281 282 281 280 280 280 278 276 275 275 273 272 271 271 271 271 270 271 271 271 271 271 271 272 272 272 272 273 273
303 301 299 297 295 295 295 293 291 290 289 287 286 284 282 281 282 282 280 280 280 279 278 276 274 273 272 271 271 272 272 273 273 273 272 272 272 272 272 273 273 273 272 273
300 299 298 297 296 296 295 294 292 291 289 288 287 285 283 282 282 281 280 279 279 279 279 277 276 274 273 274 274 274 274 274 274 274 274 273 273 273 273 273 272 271 271 272
300 298 296 295 294 294 293 293 292 291 289 288 286 285 285 285 284 283 283 283 282 281 279 278 278 277 276 276 276 276 276 276 275 274 274 274 273 273 273 273 272 272 272 272
300 299 296 294 293 292 291 291 290 288 287 287 287 287 288 287 287 287 286 286 286 285 283 280 278 278 277 276 276 276 276 276 275 275 275 274 273 272 272 272 272 272 273 273
299 297 295 294 294 293 292 290 288 287 286 287 287 287 287 287 287 288 287 286 285 285 283 282 280 280 279 278 277 276 277 277 277 276 275 274 273 272 271 271 272 273 273 273
Height
5686 5686 5685 5686 5684 5685 5683 5682 5682 5683 5681 5680 5680 5682 5682 5683 5684 5684 5685 5686 5687 5688 5689 5690 5691 5691 5692 5693 5694 5695 5696 5697 5698 5699 5700 5701 5701 5702 5703 5704 5705 5705 5706 5707
5676 5676 5678 5676 5674 5673 5672 5671 5671 5671 5670 5668 5668 5669 5670 5670 5672 5673 5674 5675 5676 5677 5678 5679 5680 5681 5682 5683 5684 5685 5685 5686 5687 5688 5689 5689 5690 5691 5692 5693 5693 5694 5694 5695
5665 5668 5667 5664 5662 5661 5661 5660 5661 5659 5658 5656 5655 5655 5658 5658 5659 5661 5663 5664 5664 5666 5667 5668 5669 5670 5671 5672 5673 5674 5674 5675 5675 5676 5677 5677 5678 5679 5680 5681 5681 5682 5682 5683
5654 5656 5654 5652 5651 5650 5650 5651 5650 5648 5646 5644 5645 5642 5647 5648 5648 5649 5651 5652 5653 5655 5656 5656 5657 5658 5659 5660 5661 5662 5662 5663 5664 5664 5665 5666 5667 5667 5668 5668 5668 5669 5669 5670
5644 5644 5643 5641 5642 5640 5639 5639 5638 5637 5635 5633 5634 5632 5636 5637 5637 5639 5640 5641 5641 5643 5644 5644 5645 5647 5647 5648 5649 5650 5650 5651 5652 5652 5653 5654 5654 5655 5655 5655 5656 5656 5656 5657
5633 5633 5631 5631 5631 5629 5628 5628 5627 5625 5623 5622 5625 5623 5623 5626 5628 5629 5630 5630 5630 5631 5632 5633 5633 5634 5635 5636 5637 5638 5639 5639 5640 5640 5640 5641 5641 5642 5642 5643 5643 5643 5643 5644
5623 5622 5621 5621 5620 5620 5618 5618 5616 5613 5612 5613 5615 5612 5614 5617 5618 5618 5619 5619 5619 5620 5620 5621 5621 5622 5623 5624 5624 5625 5626 5627 5627 5628 5628 5628 5629 5629 5629 5630 5630 5631 5631 5630
5611 5611 5612 5611 5610 5609 5609 5608 5607 5605 5603 5604 5604 5602 5606 5608 5607 5607 5607 5607 5608 5609 5609 5609 5609 5610 5610 5611 5612 5612 5613 5614 5615 5615 5615 5616 5616 5616 5617 5617 5618 5617 5617 5617
5602 5602 5602 5601 5600 5599 5599 5598 5598 5597 5594 5594 5593 5594 5596 5597 5596 5597 5597 5596 5597 5597 5597 5597 5597 5598 5598 5599 5599 5600 5601 5602 5602 5603 5603 5603 5603 5604 5604 5604 5604 5604 5604 5603
5593 5592 5593 5592 5591 5590 5590 5589 5589 5586 5584 5583 5584 5584 5586 5586 5586 5586 5586 5586 5585 5585 5585 5585 5585 5585 5586 5586 5587 5588 5588 5589 5590 5590 5590 5590 5590 5590 5590 5590 5590 5590 5590 5590
5585 5584 5583 5582 5581 5581 5581 5580 5578 5577 5576 5575 5573 5577 5577 5576 5576 5576 5575 5574 5574 5573 5573 5573 5573 5573 5574 5574 5575 5575 5576 5576 5576 5577 5577 5577 5577 5577 5577 5577 5577 5577 5576 5576
5577 5575 5574 5573 5573 5571 5570 5570 5569 5568 5567 5565 5564 5567 5567 5567 5565 5565 5564 5563 5562 5562 5561 5561 5561 5561 5562 5562 5562 5563 5563 5563 5564 5564 5564 5564 5564 5564 5564 5563 5563 5563 5562 5562
5569 5567 5565 5564 5565 5563 5561 5560 5559 5558 5557 5555 5555 5558 5557 5556 5554 5553 5553 5552 5551 5550 5550 5549 5549 5549 5550 5550 5550 5550 5550 5550 5550 5551 5551 5551 5551 5551 5550 5550 5549 5549 5548 5548
5560 5559 5558 5556 5554 5552 5551 5550 5549 5548 5546 5545 5545 5546 5546 5545 5543 5542 5541 5540 5540 5539 5538 5538 5537 5537 5537 5537 5537 5537 5537 5537 5537 5537 5537 5537 5537 5537 5537 5536 5536 5535 5535 5534
5552 5550 5548 5547 5545 5543 5542 5541 5539 5538 5537 5536 5536 5535 5535 5534 5532 5531 5530 5529 5528 5527 5526 5526 5525 5525 5525 5525 5524 5524 5524 5524 5524 5524 5524 5524 5524 5524 5523 5523 5522 5522 5521 5521
5543 5541 5539 5538 5536 5534 5532 5531 5530 5528 5527 5525 5525 5524 5525 5523 5521 5520 5518 5517 5516 5515 5515 5514 5514 5513 5513 5512 5512 5512 5512 5511 5511 5511 5511 5511 5510 5510 5510 5510 5509 5509 5508 5507
5534 5532 5529 5528 5527 5523 5522 5523 5520 5519 5518 5516 5514 5515 5514 5512 5510 5508 5507 5506 5504 5503 5503 5502 5502 5501 5501 5500 5500 5499 5499 5498 5498 5498 5498 5498 5497 5497 5497 5496 5496 5495 5495 5494
5526 5523 5520 5518 5517 5514 5516 5513 5510 5508 5507 5506 5504 5503 5501 5500 5499 5497 5495 5494 5493 5492 5491 5491 5490 5489 5489 5488 5487 5487 5486 5486 5485 5485 5485 5485 5485 5485 5484 5484 5483 5483 5482 5482
5518 5515 5512 5509 5506 5504 5505 5503 5500 5498 5497 5495 5494 5492 5491 5489 5487 5486 5484 5483 5482 5481 5480 5479 5479 5478 5477 5476 5475 5474 5474 5473 5473 5473 5472 5472 5472 5472 5471 5471 5470 5470 5470 5469
5510 5507 5504 5501 5497 5495 5496 5494 5490 5489 5487 5486 5483 5481 5480 5478 5477 5476 5474 5472 5471 5470 5469 5468 5467 5466 5466 5465 5463 5463 5462 5461 5461 5461 5460 5460 5459 5459 5459 5458 5458 5457 5457 5456
5503 5499 5496 5493 5489 5487 5487 5484 5483 5481 5479 5476 5474 5472 5470 5468 5467 5465 5463 5462 5460 5459 5458 5457 5456 5455 5454 5453 5452 5451 5450 5450 5449 5448 5448 5448 5447 5447 5446 5446 5445 5445 5444 5444
5494 5491 5488 5485 5482 5482 5478 5475 5474 5471 5469 5466 5464 5462 5460 5458 5457 5455 5453 5451 5450 5448 5447 5445 5444 5443 5442 5441 5440 5440 5439 5438 5437 5437 5436 5436 5435 5435 5434 5434 5433 5433 5432 5432
5487 5484 5480 5478 5476 5472 5469 5466 5464 5461 5459 5457 5455 5453 5451 5449 5447 5445 5443 5441 5439 5438 5436 5434 5433 5432 5431 5430 5429 5428 5427 5426 5426 5425 5425 5424 5423 5423 5422 5422 5422 5421 5421 5421
5479 5475 5472 5469 5466 5464 5461 5458 5456 5453 5451 5448 5446 5444 5441 5439 5437 5435 5433 5431 5429 5427 5425 5423 5422 5421 5420 5419 5417 5417 5416 5415 5414 5414 5413 5413 5412 5412 5411 5411 5410 5410 5410 5409
5470 5466 5463 5460 5458 5455 5453 5450 5447 5444 5442 5439 5437 5435 5432 5429 5427 5425 5423 5421 5418 5416 5414 5412 5411 5409 5408 5407 5406 5405 5404 5404 5403 5403 5402 5401 5401 5400 5400 5400 5400 5399 5399 5398
5461 5457 5454 5451 5448 5446 5443 5440 5438 5435 5433 5430 5428 5426 5423 5420 5417 5415 5413 5410 5408 5406 5404 5402 5400 5398 5397 5396 5395 5394 5393 5392 5392 5392 5391 5390 5390 5390 5389 5389 5389 5388 5388 5387